Hutchinson, KS

4:41 PM CST on February 19, 2018 (GMT -0600)
Hutchinson Municipal

Weather History for KHUT - August, 2013

Change the Weather History Date:

Saturday, August 17, 2013

  Actual Average Record
Temperature  
Mean Temperature 70 °F -  
Max Temperature 81 °F 88 °F 102 °F (1998)
Min Temperature 62 °F 63 °F 57 °F (2012)
Cooling Degree Days 6    
Growing Degree Days 20 (Base 50)    
Moisture  
Dew Point 61 °F    
Average Humidity 73    
Maximum Humidity 90    
Minimum Humidity 54    
Precipitation  
Precipitation 0.00 in - - ()
Sea Level Pressure  
Sea Level Pressure 30.10 in    
Wind  
Wind Speed 7 mph (ESE)    
Max Wind Speed 10 mph    
Max Gust Speed -    
Visibility 10 miles    
Events      
Averages and records for this station are not official NWS values.
T = Trace of Precipitation, MM = Missing Value Source: NWS Daily Summary

Daily Weather History Graph

Daily Weather History Graph

Search for Another Location

Airport or City:

Trip Planner

Search our weather history database for the weather conditions in past years. The results will help you decide how hot, cold, wet, or windy it might be!

Date:

Astronomy

Aug. 17, 2013 Rise Set
Actual Time 6:48 AM CDT 8:21 PM CDT
Civil Twilight 6:20 AM CDT 8:49 PM CDT
Nautical Twilight 5:46 AM CDT 9:23 PM CDT
Astronomical Twilight 5:11 AM CDT 9:58 PM CDT
Moon 5:36 PM CDT (8/17) 2:54 AM CDT (8/17)
Length of Visible Light 14h 29m
Length of Day
13h 33m
Waxing Gibbous, 84% of the Moon is Illuminated
Aug 17
Waxing Gibbous
Aug 20
Full
Aug 28
Last Quarter
Sep 5
New
Sep 12
First Quarter

Hourly Weather History & Observations

Time (CDT) Temp. Dew Point Humidity Pressure Visibility Wind Dir Wind Speed Gust Speed Precip Events Conditions
12:52 AM 66.9 °F 62.1 °F 84% 30.11 in 10.0 mi ESE 6.9 mph - N/A   Clear
1:52 AM 64.9 °F 62.1 °F 90% 30.12 in 10.0 mi ESE 6.9 mph - N/A   Clear
2:52 AM 64.9 °F 61.0 °F 87% 30.11 in 10.0 mi ESE 6.9 mph - N/A   Scattered Clouds
3:52 AM 64.0 °F 60.1 °F 87% 30.11 in 10.0 mi ESE 4.6 mph - N/A   Partly Cloudy
4:52 AM 63.0 °F 60.1 °F 90% 30.12 in 10.0 mi ESE 5.8 mph - N/A   Clear
5:52 AM 63.0 °F 60.1 °F 90% 30.11 in 9.0 mi ESE 5.8 mph - N/A   Mostly Cloudy
6:52 AM 62.1 °F 59.0 °F 90% 30.13 in 8.0 mi ESE 4.6 mph - N/A   Scattered Clouds
7:52 AM 64.0 °F 60.1 °F 87% 30.14 in 7.0 mi ESE 3.5 mph - N/A   Clear
8:52 AM 66.9 °F 60.1 °F 79% 30.14 in 10.0 mi SE 6.9 mph - N/A   Clear
9:52 AM 71.1 °F 61.0 °F 70% 30.14 in 10.0 mi SE 6.9 mph - N/A   Clear
10:52 AM 73.9 °F 62.1 °F 66% 30.14 in 10.0 mi South 8.1 mph - N/A   Scattered Clouds
11:52 AM 77.0 °F 63.0 °F 62% 30.13 in 10.0 mi South 8.1 mph - N/A   Scattered Clouds
12:52 PM 75.9 °F 62.1 °F 62% 30.12 in 10.0 mi SE 5.8 mph - N/A   Scattered Clouds
1:52 PM 79.0 °F 64.0 °F 60% 30.10 in 10.0 mi Variable 3.5 mph - N/A   Mostly Cloudy
2:52 PM 78.1 °F 62.1 °F 58% 30.08 in 10.0 mi East 8.1 mph - N/A   Mostly Cloudy
3:52 PM 78.1 °F 62.1 °F 58% 30.07 in 10.0 mi SE 8.1 mph - N/A   Overcast
4:52 PM 78.1 °F 61.0 °F 56% 30.06 in 10.0 mi SE 10.4 mph - N/A   Overcast
5:52 PM 79.0 °F 61.0 °F 54% 30.05 in 10.0 mi SE 8.1 mph - N/A   Clear
6:52 PM 77.0 °F 60.1 °F 56% 30.04 in 10.0 mi ESE 6.9 mph - N/A   Clear
7:52 PM 73.9 °F 60.1 °F 62% 30.05 in 10.0 mi ESE 8.1 mph - N/A   Mostly Cloudy
8:52 PM 70.0 °F 60.1 °F 71% 30.06 in 10.0 mi East 6.9 mph - N/A   Mostly Cloudy
9:52 PM 69.1 °F 60.1 °F 73% 30.08 in 10.0 mi ESE 6.9 mph - N/A   Mostly Cloudy
10:52 PM 68.0 °F 59.0 °F 73% 30.09 in 10.0 mi ESE 6.9 mph - N/A   Mostly Cloudy
11:52 PM 66.0 °F 59.0 °F 78% 30.10 in 10.0 mi ESE 5.8 mph - N/A   Scattered Clouds